Regional Weather Roundup
Issued by NWS

Home | Current Version | Previous Version | Graphics & Text | Print | Product List | Glossary Off
Versions: 1 2 3 4 5 6 7 8 9 10 11 12 13 14 15 16 17 18 19 20 21 22 23 24 25 26 27 28 29 30 31 32 33 34 35 36 37 38 39 40 41 42 43 44 45 46 47 48 49 50

337
ASUS43 KLSX 280610
RWRMO

WEATHER SUMMARY FOR MISSOURI
NATIONAL WEATHER SERVICE SPRINGFIELD MO
100 AM CDT FRI JUL 28 2017

NOTE: "FAIR" INDICATES FEW OR NO CLOUDS BELOW 12,000 FEET WITH NO
       SIGNIFICANT WEATHER AND/OR OBSTRUCTIONS TO VISIBILITY.
       CURRENT SKY AND/OR WEATHER CONDITIONS ARE NOT AVAILABLE FOR
       CHILLICOTHE AND FARMINGTON.

MOZ001>031-035>038-043-044-053-054-280700-
...NORTHERN AND WESTERN MISSOURI...

CITY           SKY/WX    TMP DP  RH WIND       PRES   REMARKS
KANSAS CTY INT CLEAR     73  70  90 N7        29.96S
6HR MIN TEMP:  73; 6HR MAX TEMP:  83;

LEE`S SUMMIT   CLEAR     75  73  93 CALM      29.96S
6HR MIN TEMP:  75; 6HR MAX TEMP:  82;

ST JOSEPH      MOCLDY    72  68  87 N8        29.97F
6HR MIN TEMP:  72; 6HR MAX TEMP:  85;

CHILLICOTHE      N/A     75  69  81 N6        29.97S
6HR MIN TEMP:  75; 6HR MAX TEMP:  86;

KIRKSVILLE     CLEAR     71  67  87 NE8       29.98S
6HR MIN TEMP:  70; 6HR MAX TEMP:  83;


$$
MOZ066>068-077>081-088>096-101>105-280700-
...SOUTHWEST MISSOURI...

CITY           SKY/WX    TMP DP  RH WIND       PRES   REMARKS
SPRINGFIELD    CLOUDY    78  76  93 NE5       29.92F
6HR MIN TEMP:  77; 6HR MAX TEMP:  85; 6HR PCP:  0.01;

JOPLIN         TSTM      77  77 100 E5        29.92F FOG
6HR MIN TEMP:  77; 6HR MAX TEMP:  88; 6HR PCP:  0.52;

BRANSON        CLOUDY    77  77 100 CALM      29.93F FOG

$$
MOZ032>034-039>042-045>050-055>058-069>072-280700-
...CENTRAL MISSOURI...

CITY           SKY/WX    TMP DP  RH WIND       PRES   REMARKS
COLUMBIA       CLOUDY    76  73  91 N5        29.93F
6HR MIN TEMP:  75; 6HR MAX TEMP:  79;

JEFFERSON CITY PTCLDY    77  75  93 N5        29.91F
6HR MIN TEMP:  76; 6HR MAX TEMP:  81;

ROLLA          PTCLDY    71  71 100 CALM      29.94F
6HR MIN TEMP:  70; 6HR MAX TEMP:  79; 6HR PCP: TRACE;

SEDALIA        PTCLDY    76  75  97 NE6       29.95S
6HR MIN TEMP:  76; 6HR MAX TEMP:  83;

WHITEMAN AFB   PTCLDY    74  74 100 E3        29.93S
WARRENSBURG    CLEAR     72  70  94 CALM      29.94S
OSAGE BEACH    MOCLDY    74  73  97 CALM      29.93F

$$
MOZ051-052-059>065-280700-
...EAST CENTRAL MISSOURI...

CITY           SKY/WX    TMP DP  RH WIND       PRES   REMARKS
ST LOUIS INTL  MOCLDY    79  74  84 NW5       29.89S
6HR MIN TEMP:  78; 6HR MAX TEMP:  81;

SPIRIT OF STL  PTCLDY    76  76 100 W3        29.87F
6HR MIN TEMP:  75; 6HR MAX TEMP:  79; 6HR PCP:  0.06;

ST CHARLES     CLOUDY    78  75  90 N7        29.88S
6HR MIN TEMP:  76; 6HR MAX TEMP:  80;


$$
MOZ072>076-082>087-097>100-106>115-280700-
...SOUTH CENTRAL AND SOUTHEAST MISSOURI...

CITY           SKY/WX    TMP DP  RH WIND       PRES   REMARKS
CAPE GIRARDEAU CLOUDY    78  74  87 W5        29.86F
6HR MIN TEMP:  78; 6HR MAX TEMP:  83;

FARMINGTON     CLOUDY    75  73  93 W3        29.90F
6HR MIN TEMP:  75; 6HR MAX TEMP:  82; 6HR PCP:  0.02;

POPLAR BLUFF   CLOUDY    78  77  96 CALM      29.86F
6HR MIN TEMP:  78; 6HR MAX TEMP:  83; 6HR PCP:  0.02;

WEST PLAINS    CLOUDY    76  74  93 CALM      29.93F
6HR MIN TEMP:  76; 6HR MAX TEMP:  81; 6HR PCP:  0.01;


$$




USA.gov is the U.S. government's official web portal to all federal, state and local government web resources and services.